Flag for Argentina Weather past 2 weeks in Río Grande, Tierra del Fuego, Argentina

Now
50 °F

Passing clouds.


Feels Like: 43 °F
Forecast: 39 / 48 °F
Wind: 24 mph from West

Location: Rio Grande B. A.

Current Time: Sep 22, 2014 at 3:49:28 PM

Latest Report: Sep 22, 2014 at 2:00 PM


Visibility: N/A

Pressure: 29.33 "Hg

Humidity: 62%

Dew point: 37 °F

Location of Río GrandeLocation

Historic Weather in Río Grande — Graph

°F

Río Grande temperature yesterday

Maximum temperature yesterday: 43 °F (at 6:00 AM)
Minimum temperature yesterday: 39 °F (at 4:00 AM)
Average temperature yesterday: 41 °F

Past Weeks' High & Low Weather Summary

 TemperatureHumidityPressure
High52 °F (Sep 10, 3:00 PM)100% (Sep 8, 7:00 AM)32.46 "Hg (Sep 8, 7:00 AM)
Low27 °F (Sep 19, 4:00 AM)50% (Sep 10, 6:00 PM)28.97 "Hg (Sep 11, 10:00 PM)
Average40 °F82%29.46 "Hg
* Reported Sep 7 2:00 PM — Sep 22 2:00 PM, Río Grande, Weather by CustomWeather, © 2014

Note: Actual official high and low records may vary slightly from our data, if they occured in-between our weather recording intervals... More about our weather records

Advertising

Río Grande weather history for previous 24 hours

 ConditionsComfort  
Time TempWeatherWind HumidityBarometerVisibility
2:00 PM
Sep 22
50 °FPassing clouds.24 mph62%29.33 "HgN/A
1:00 PM48 °FPassing clouds.26 mph66%29.30 "HgN/A
12:00 PM46 °FPassing clouds.24 mph71%29.30 "HgN/A
11:00 AM48 °FPassing clouds.25 mph66%29.30 "HgN/A
10:00 AM43 °FPassing clouds.17 mph81%29.30 "HgN/A
9:00 AM43 °FPassing clouds.17 mph81%29.30 "HgN/A
8:00 AM39 °FSunny.10 mph93%29.27 "Hg10 mi
7:00 AM41 °FMostly cloudy.9 mph87%29.27 "Hg5 mi
6:00 AM39 °FMostly cloudy.12 mph93%29.24 "Hg5 mi
5:00 AM39 °FMostly cloudy.13 mph93%29.24 "Hg5 mi
4:00 AM41 °FOvercast.12 mph87%29.24 "Hg5 mi
3:00 AM37 °FOvercast.12 mph93%29.24 "Hg5 mi
2:00 AM37 °FOvercast.9 mph93%29.24 "Hg5 mi
1:00 AM37 °FPassing clouds.12 mph93%29.24 "Hg5 mi
12:00 AM39 °FPassing clouds.12 mph87%29.21 "Hg5 mi
11:00 PM
Sep 21
39 °FPassing clouds.16 mph93%29.21 "Hg5 mi
10:00 PM41 °FFog.14 mph93%29.15 "Hg5 mi
9:00 PM41 °FFog.14 mph93%29.12 "Hg2 mi
8:00 PM41 °FDrizzle. Mostly cloudy.13 mph100%29.12 "Hg1 mi
7:00 PM41 °FFog.16 mph100%29.12 "Hg1 mi
6:00 PM41 °FFog.21 mph100%29.12 "Hg1 mi
5:00 PM41 °FFog.29 mph100%29.18 "Hg1 mi
4:00 PM41 °FFog.26 mph100%29.24 "Hg1 mi
3:00 PM41 °FFog.26 mph93%29.30 "Hg1 mi
Weather by CustomWeather, © 2014

See weather overviewHow to use our weather pages